This is the latest recevied weather packets stored in our database for station/object K7AEL. If no packets are shown the sender has not sent any weather packets the latest 10 day(s).
| Time | Temp. | Humidity | Pressure | Rain* | Wind** | Luminosity | Snow |
|---|---|---|---|---|---|---|---|
| 1777769455 | 30° C | 19% | 1012 hPa | 0 mm | - | 77 W/m² | - |
| 1777768243 | 31.11° C | 17% | 1011.8 hPa | 0 mm | - | 109 W/m² | - |
| 1777767940 | 31.11° C | 17% | 1011.8 hPa | 0 mm | - | 119 W/m² | - |
| 1777767637 | 31.11° C | 18% | 1012 hPa | 0 mm | - | 146 W/m² | - |
| 1777767333 | 31.11° C | 17% | 1011.9 hPa | 0 mm | - | 143 W/m² | - |
| 1777766728 | 31.11° C | 17% | 1012.1 hPa | 0 mm | - | 129 W/m² | - |
| 1777766121 | 31.67° C | 18% | 1012 hPa | 0 mm | - | 188 W/m² | - |
| 1777761574 | 32.78° C | 14% | 1012.4 hPa | 0 mm | - | 466 W/m² | - |
| 1777761272 | 33.89° C | 15% | 1012.4 hPa | 0 mm | - | 467 W/m² | - |
| 1777760970 | 33.89° C | 14% | 1012.3 hPa | 0 mm | - | 464 W/m² | - |
| 1777760667 | 33.33° C | 13% | 1012.5 hPa | 0 mm | - | 486 W/m² | - |
| 1777760362 | 33.89° C | 13% | 1012.6 hPa | 0 mm | - | 482 W/m² | - |
| 1777760059 | 33.89° C | 13% | 1012.6 hPa | 0 mm | - | 480 W/m² | - |
| 1777759757 | 33.33° C | 13% | 1012.5 hPa | 0 mm | - | 430 W/m² | - |
| 1777759452 | 33.33° C | 13% | 1012.8 hPa | 0 mm | - | 530 W/m² | - |
| 1777759149 | 32.78° C | 14% | 1012.8 hPa | 0 mm | - | 551 W/m² | - |
| 1777758847 | 32.78° C | 14% | 1013 hPa | 0 mm | - | 565 W/m² | - |
| 1777758543 | 32.78° C | 14% | 1012.8 hPa | 0 mm | - | 575 W/m² | - |
| 1777758240 | 32.78° C | 15% | 1013.3 hPa | 0 mm | - | 578 W/m² | - |
| 1777757937 | 32.78° C | 14% | 1013.5 hPa | 0 mm | - | 514 W/m² | - |
| 1777757634 | 32.22° C | 15% | 1013.5 hPa | 0 mm | - | 582 W/m² | - |
| 1777757333 | 32.22° C | 14% | 1013.6 hPa | 0 mm | - | 610 W/m² | - |
| 1777757031 | 32.22° C | 14% | 1013.5 hPa | 0 mm | - | 613 W/m² | - |
| 1777756728 | 32.78° C | 14% | 1013.6 hPa | 0 mm | - | 600 W/m² | - |
| 1777756121 | 31.67° C | 16% | 1013.5 hPa | 0 mm | - | 676 W/m² | - |
* Rain latest hour (hover to see other rain measurements)
** Current wind speed in m/s (hover to see current wind gust speed)